EW0596 Weather Reports


Display with metric or nautical units.
time (UTC)temp
F
wind
direction
speed
MPH
gust
MPH
rain 1hr
in
rain 24hr
in
rain mn
in
humidity
%
barometer
mb
20260506214524 76 252 2.0 7.0 0.00 0.00 0.00 43 1010.7
20260506213023 76 209 2.0 7.0 0.00 0.00 0.00 46 1010.9
20260506211509 75 274 2.0 7.0 0.00 0.00 0.00 48 1010.9
20260506210009 74 263 1.0 8.0 0.00 0.00 0.00 47 1011.1
20260506204501 74 238 1.0 6.0 0.00 0.00 0.00 46 1011.4
20260506203058 73 246 1.0 5.0 0.00 0.00 0.00 45 1011.5
20260506201554 72 249 2.0 4.0 0.00 0.00 0.00 41 1011.9
20260506200051 71 288 1.0 5.0 0.00 0.00 0.00 41 1012.1
20260506194547 70 305 0.0 4.0 0.00 0.00 0.00 44 1012.2
20260506193047 69 355 2.0 6.0 0.00 0.00 0.00 40 1012.5
20260506191541 69 246 0.0 3.0 0.00 0.00 0.00 44 1012.7
20260506190037 68 17 0.0 3.0 0.00 0.00 0.00 44 1013.0
20260506184535 67 344 1.0 3.0 0.00 0.00 0.00 40 1013.2
20260506183036 67 265 0.0 3.0 0.00 0.00 0.00 43 1013.4
20260506181531 66 262 1.0 5.0 0.00 0.00 0.00 41 1013.4
20260506180038 66 51 0.0 3.0 0.00 0.00 0.00 40 1013.4
20260506174529 66 57 1.0 4.0 0.00 0.00 0.00 41 1013.4
20260506173014 64 43 0.0 4.0 0.00 0.00 0.00 39 1013.6
20260506171512 63 285 0.0 3.0 0.00 0.00 0.00 46 1013.9
20260506170006 62 148 1.0 5.0 0.00 0.00 0.00 44 1014.1
20260506164503 61 174 0.0 3.0 0.00 0.00 0.00 46 1014.2
20260506163121 59 65 0.0 3.0 0.00 0.00 0.00 49 1014.3
20260506161616 59 137 0.0 7.0 0.00 0.00 0.00 46 1014.3
20260506160055 58 126 1.0 4.0 0.00 0.00 0.00 48 1014.3
20260506154609 57 57 1.0 5.0 0.00 0.00 0.00 51 1014.5
20260506153046 56 99 0.0 4.0 0.00 0.00 0.00 55 1014.3
20260506151536 55 41 0.0 3.0 0.00 0.00 0.00 55 1014.5
20260506150033 54 102 1.0 3.0 0.00 0.00 0.00 57 1014.5
20260506144531 53 79 2.0 8.0 0.00 0.00 0.00 55 1014.5
20260506143040 52 51 1.0 5.0 0.00 0.00 0.00 57 1014.5
20260506141535 51 53 1.0 4.0 0.00 0.00 0.00 61 1014.4
20260506140030 50 49 1.0 4.0 0.00 0.00 0.00 61 1014.5
20260506134528 50 49 1.0 5.0 0.00 0.00 0.00 60 1014.4
20260506133014 50 78 0.0 7.0 0.00 0.00 0.00 59 1014.4
20260506131514 49 51 1.0 3.0 0.00 0.00 0.00 59 1014.2
20260506130012 49 58 1.0 7.0 0.00 0.00 0.00 59 1014.2
20260506124509 48 69 1.0 4.0 0.00 0.00 0.00 59 1014.0
20260506123008 48 55 1.0 5.0 0.00 0.00 0.00 60 1013.9
20260506121507 48 41 2.0 6.0 0.00 0.00 0.00 61 1013.7
20260506120006 49 59 1.0 4.0 0.00 0.00 0.00 60 1013.7
20260506114500 50 62 0.0 2.0 0.00 0.00 0.00 57 1013.7
20260506113047 50 65 1.0 3.0 0.00 0.00 0.00 55 1013.8
20260506111545 51 65 2.0 5.0 0.00 0.00 0.00 53 1013.8
20260506110051 51 61 1.0 7.0 0.00 0.00 0.00 53 1013.8
20260506104541 52 48 1.0 4.0 0.00 0.00 0.00 52 1013.7
20260506103040 52 67 2.0 5.0 0.00 0.00 0.00 51 1013.6
20260506101542 52 53 1.0 4.0 0.00 0.00 0.00 52 1013.6
20260506100041 52 60 1.0 4.0 0.00 0.00 0.00 52 1013.5
20260506094548 52 58 1.0 4.0 0.00 0.00 0.00 53 1013.5
20260506093028 53 57 2.0 4.0 0.00 0.00 0.00 52 1013.6
20260506091523 53 57 1.0 5.0 0.00 0.00 0.00 52 1013.5
20260506090022 52 54 2.0 5.0 0.00 0.00 0.00 53 1013.4
20260506084517 53 58 1.0 3.0 0.00 0.00 0.00 54 1013.4
20260506083014 54 61 1.0 5.0 0.00 0.00 0.00 52 1013.4
20260506081514 54 59 2.0 4.0 0.00 0.00 0.00 51 1013.2
20260506073058 48 65 1.0 3.0 0.00 0.00 0.00 67 1012.9
20260506071554 47 63 0.0 1.0 0.00 0.00 0.00 59 1012.8
20260506061541 47 32 0.0 1.0 0.00 0.00 0.00 59 1012.6
20260506044536 50 28 0.0 0.0 0.00 0.00 0.00 65 1011.6
20260506043026 51 28 0.0 2.0 0.00 0.00 0.00 65 1011.5
20260506041525 52 28 0.0 2.0 0.00 0.00 0.00 64 1011.3
20260506040048 53 29 0.0 2.0 0.00 0.00 0.00 64 1011.2
20260506034525 53 29 0.0 2.0 0.00 0.00 0.00 62 1011.1
20260506033024 53 41 0.0 1.0 0.00 0.00 0.00 61 1011.0
20260506031539 55 41 0.0 0.0 0.00 0.00 0.00 62 1010.8
20260506030012 57 41 0.0 1.0 0.00 0.00 0.00 60 1010.7
20260506024518 60 41 0.0 1.0 0.00 0.00 0.00 58 1010.6
20260506023011 64 41 0.0 2.0 0.00 0.00 0.00 55 1010.6
20260506021511 67 59 0.0 1.0 0.00 0.00 0.00 42 1010.5
20260506020009 69 59 0.0 1.0 0.00 0.00 0.00 35 1010.5
20260506014512 70 63 0.0 1.0 0.00 0.00 0.00 32 1010.4
20260506013008 70 61 0.0 1.0 0.00 0.00 0.00 33 1010.4
20260506011507 70 73 0.0 3.0 0.00 0.00 0.00 31 1010.3
20260506010058 70 67 0.0 4.0 0.00 0.00 0.00 30 1010.4
20260506004553 71 150 0.0 3.0 0.00 0.00 0.00 30 1010.5
20260506003052 72 165 0.0 1.0 0.00 0.00 0.00 31 1010.7
20260506001549 72 171 0.0 2.0 0.00 0.00 0.00 29 1010.8
20260506000049 72 142 0.0 2.0 0.00 0.00 0.00 31 1010.9
20260505234556 72 40 0.0 4.0 0.00 0.00 0.00 30 1011.2
20260505233044 72 146 1.0 4.0 0.00 0.00 0.00 29 1011.3
20260505231550 72 135 0.0 5.0 0.00 0.00 0.00 30 1011.4
20260505230033 71 69 1.0 3.0 0.00 0.00 0.00 31 1011.7
20260505224530 71 143 2.0 7.0 0.00 0.00 0.00 29 1011.8
20260505223028 71 188 1.0 7.0 0.00 0.00 0.00 29 1011.9
20260505221528 72 167 1.0 3.0 0.00 0.00 0.00 32 1012.1
20260505220030 71 71 1.0 7.0 0.00 0.00 0.00 33 1012.2